Hartford, CT

8:56 PM EST on November 15, 2019 (GMT -0500)
Hartford-brainard

Weather History for KHFD - October, 2019

Change the Weather History Date:

Monday, October 21, 2019

  Actual Average Record
Temperature  
Mean Temperature 58 °F -  
Max Temperature 68 °F 59 °F 82 °F (1920)
Min Temperature 48 °F 37 °F 19 °F (1972)
Degree Days  
Heating Degree Days 7    
Growing Degree Days 8 (Base 50)    
Moisture  
Dew Point 47 °F    
Average Humidity 78    
Maximum Humidity 93    
Minimum Humidity 50    
Precipitation  
Precipitation 0.01 in - - ()
Sea Level Pressure  
Sea Level Pressure 30.08 in    
Wind  
Wind Speed 6 mph ()    
Max Wind Speed 12 mph    
Max Gust Speed -    
Visibility 9.8 miles    
Events      
Averages and records for this station are not official NWS values.
T = Trace of Precipitation, MM = Missing Value Source: Averaged Metar Reports

Daily Weather History Graph

Daily Weather History Graph

Search for Another Location

Airport or City:

Astronomy

Oct. 21, 2019 Rise Set
Actual Time 7:09 AM EDT 6:00 PM EDT
Civil Twilight 6:41 AM EDT 6:28 PM EDT
Nautical Twilight 6:08 AM EDT 7:01 PM EDT
Astronomical Twilight 5:36 AM EDT 7:33 PM EDT
Moon No Moon Rise 2:28 PM EDT (10/21)
Length of Visible Light 11h 47m
Length of Day
10h 51m
Waning Gibbous, 48% of the Moon is Illuminated
Oct 21
Waning Gibbous
Oct 27
New
Nov 4
First Quarter
Nov 12
Full
Nov 19
Last Quarter

Hourly Weather History & Observations

Time (EDT) Temp. Dew Point Humidity Pressure Visibility Wind Dir Wind Speed Gust Speed Precip Events Conditions
12:53 AM 51.1 °F 48.0 °F 89% 30.03 in 10.0 mi NE 5.8 mph - 0.01 in   Overcast
1:53 AM 51.1 °F 48.0 °F 89% 30.03 in 10.0 mi NW 5.8 mph - N/A   Overcast
2:53 AM 51.1 °F 48.0 °F 89% 30.02 in 10.0 mi North 4.6 mph - N/A   Overcast
3:53 AM 51.1 °F 48.0 °F 89% 30.01 in 10.0 mi North 9.2 mph - N/A   Scattered Clouds
4:53 AM 48.9 °F 46.0 °F 90% 30.03 in 10.0 mi North 6.9 mph - N/A   Clear
5:53 AM 48.9 °F 46.0 °F 90% 30.05 in 9.0 mi North 5.8 mph - N/A   Clear
6:53 AM 48.0 °F 45.0 °F 89% 30.07 in 8.0 mi North 9.2 mph - N/A   Clear
7:53 AM 48.0 °F 46.0 °F 93% 30.08 in 10.0 mi North 8.1 mph - N/A   Clear
8:12 AM 48.0 °F 45.0 °F 89% 30.08 in 10.0 mi North 6.9 mph - N/A   Partly Cloudy
8:53 AM 50.0 °F 46.0 °F 86% 30.09 in 9.0 mi North 9.2 mph - N/A   Clear
9:53 AM 53.1 °F 46.9 °F 80% 30.09 in 10.0 mi North 9.2 mph - N/A   Partly Cloudy
10:53 AM 55.9 °F 48.0 °F 75% 30.08 in 10.0 mi North 10.4 mph - N/A   Scattered Clouds
11:53 AM 57.9 °F 48.0 °F 70% 30.09 in 10.0 mi North 11.5 mph - N/A   Clear
12:53 PM 62.1 °F 48.0 °F 60% 30.08 in 10.0 mi NNE 11.5 mph - N/A   Clear
1:53 PM 64.0 °F 48.0 °F 56% 30.06 in 10.0 mi NNE 10.4 mph - N/A   Clear
2:53 PM 66.0 °F 48.9 °F 54% 30.06 in 10.0 mi NNW 9.2 mph - N/A   Clear
3:53 PM 68.0 °F 48.9 °F 50% 30.06 in 10.0 mi NNE 6.9 mph - N/A   Clear
4:53 PM 66.9 °F 48.9 °F 52% 30.08 in 10.0 mi North 6.9 mph - N/A   Clear
5:53 PM 61.0 °F 48.9 °F 64% 30.09 in 10.0 mi NE 4.6 mph - N/A   Clear
6:53 PM 57.0 °F 50.0 °F 77% 30.11 in 10.0 mi Calm Calm - N/A   Clear
7:53 PM 53.1 °F 48.0 °F 83% 30.12 in 10.0 mi Calm Calm - N/A   Clear
8:53 PM 51.1 °F 48.0 °F 89% 30.13 in 10.0 mi Calm Calm - N/A   Clear
9:53 PM 50.0 °F 46.9 °F 89% 30.14 in 10.0 mi Calm Calm - N/A   Clear
10:53 PM 48.9 °F 46.0 °F 90% 30.14 in 10.0 mi Calm Calm - N/A   Clear
11:53 PM 52.0 °F 45.0 °F 77% 30.16 in 10.0 mi West 3.5 mph - N/A   Clear